McAllen, TX

8:40 PM CST on January 18, 2018 (GMT -0600)
McAllen Miller International

Weather History for KMFE - October, 2013

Change the Weather History Date:

Sunday, October 6, 2013

  Actual Average Record
Temperature  
Mean Temperature 72 °F 79 °F  
Max Temperature 79 °F 89 °F 99 °F (2009)
Min Temperature 65 °F 69 °F 50 °F (1964)
Degree Days  
Heating Degree Days 0 0  
Month to date heating degree days 0 0  
Since 1 July heating degree days 0 0  
Cooling Degree Days 7 14  
Month to date cooling degree days 104 88  
Year to date cooling degree days 4036 3887  
Growing Degree Days 22 (Base 50)    
Moisture  
Dew Point 61 °F    
Average Humidity 69    
Maximum Humidity 88    
Minimum Humidity 49    
Precipitation  
Precipitation T in 0.07 in 1.81 in (1978)
Month to date precipitation T 0.49  
Year to date precipitation 12.16 18.53  
Sea Level Pressure  
Sea Level Pressure 30.04 in    
Wind  
Wind Speed 11 mph (NW)    
Max Wind Speed 23 mph    
Max Gust Speed 30 mph    
Visibility 10 miles    
Events      
T = Trace of Precipitation, MM = Missing Value Source: NWS Daily Summary

Daily Weather History Graph

Daily Weather History Graph

Search for Another Location

Airport or City:

Trip Planner

Search our weather history database for the weather conditions in past years. The results will help you decide how hot, cold, wet, or windy it might be!

Date:

Astronomy

Oct. 06, 2013 Rise Set
Actual Time 7:27 AM CDT 7:13 PM CDT
Civil Twilight 7:04 AM CDT 7:36 PM CDT
Nautical Twilight 6:37 AM CDT 8:03 PM CDT
Astronomical Twilight 6:11 AM CDT 8:30 PM CDT
Moon 9:00 AM CDT (10/6) 8:28 PM CDT (10/6)
Length of Visible Light 12h 32m
Length of Day
11h 46m
Waxing Crescent, 3% of the Moon is Illuminated
Oct 6
Waxing Crescent
Oct 11
First Quarter
Oct 18
Full
Oct 26
Last Quarter
Nov 3
New

Hourly Weather History & Observations

Time (CDT) Temp. Dew Point Humidity Pressure Visibility Wind Dir Wind Speed Gust Speed Precip Events Conditions
12:53 AM 78.1 °F 73.0 °F 84% 29.93 in 10.0 mi SSE 4.6 mph - N/A   Clear
1:53 AM 77.0 °F 73.0 °F 88% 29.94 in 10.0 mi SE 3.5 mph - N/A   Clear
2:53 AM 77.0 °F 73.0 °F 88% 29.93 in 10.0 mi Calm Calm - N/A   Partly Cloudy
3:17 AM 78.8 °F 73.4 °F 83% 29.93 in 10.0 mi WNW 3.5 mph - N/A   Overcast
3:53 AM 79.0 °F 73.9 °F 84% 29.93 in 10.0 mi WNW 4.6 mph - N/A   Mostly Cloudy
4:09 AM 78.8 °F 73.4 °F 83% 29.93 in 10.0 mi Calm Calm - N/A   Mostly Cloudy
4:32 AM 78.8 °F 73.4 °F 83% 29.93 in 10.0 mi West 8.1 mph - N/A   Mostly Cloudy
4:53 AM 75.0 °F 66.0 °F 73% 29.94 in 10.0 mi West 8.1 mph 17.3 mph N/A   Mostly Cloudy
5:53 AM 73.9 °F 62.1 °F 66% 29.95 in 10.0 mi NW 11.5 mph - N/A   Mostly Cloudy
6:09 AM 73.4 °F 62.6 °F 69% 29.96 in 10.0 mi NW 9.2 mph - N/A   Scattered Clouds
6:24 AM 73.4 °F 62.6 °F 69% 29.97 in 10.0 mi NW 11.5 mph - N/A   Mostly Cloudy
6:53 AM 75.0 °F 64.9 °F 71% 29.99 in 10.0 mi NNW 17.3 mph 23.0 mph N/A   Overcast
7:07 AM 71.6 °F 64.4 °F 78% 30.00 in 10.0 mi North 17.3 mph - N/A   Overcast
7:53 AM 69.1 °F 59.0 °F 70% 30.03 in 10.0 mi North 19.6 mph 25.3 mph N/A   Overcast
8:53 AM 66.9 °F 55.0 °F 66% 30.06 in 10.0 mi NNW 16.1 mph 25.3 mph N/A   Overcast
9:53 AM 68.0 °F 52.0 °F 56% 30.09 in 10.0 mi North 19.6 mph 25.3 mph N/A   Overcast
10:53 AM 66.9 °F 55.0 °F 66% 30.11 in 10.0 mi NNW 17.3 mph - N/A   Overcast
11:53 AM 71.1 °F 55.9 °F 59% 30.11 in 10.0 mi North 13.8 mph 25.3 mph N/A   Overcast
12:27 PM 71.6 °F 55.4 °F 57% 30.11 in 10.0 mi NNW 16.1 mph - N/A   Overcast
12:53 PM 73.0 °F 57.0 °F 57% 30.11 in 10.0 mi NNW 15.0 mph - N/A   Overcast
1:53 PM 72.0 °F 57.0 °F 59% 30.09 in 10.0 mi NNW 16.1 mph - N/A   Overcast
2:53 PM 70.0 °F 57.0 °F 63% 30.08 in 10.0 mi NNW 12.7 mph 21.9 mph N/A   Overcast
3:08 PM 69.8 °F 57.2 °F 64% 30.09 in 10.0 mi NW 16.1 mph - N/A   Overcast
3:51 PM 71.6 °F 57.2 °F 60% 30.08 in 10.0 mi NNW 13.8 mph - N/A   Overcast
3:53 PM 71.1 °F 57.0 °F 61% 30.08 in 10.0 mi NW 16.1 mph - N/A   Overcast
4:53 PM 71.1 °F 57.0 °F 61% 30.08 in 10.0 mi NW 12.7 mph 20.7 mph N/A   Mostly Cloudy
5:53 PM 73.9 °F 55.0 °F 52% 30.08 in 10.0 mi NNW 15.0 mph 19.6 mph N/A   Partly Cloudy
6:53 PM 73.9 °F 54.0 °F 50% 30.07 in 10.0 mi North 4.6 mph - N/A   Scattered Clouds
7:53 PM 72.0 °F 55.0 °F 55% 30.09 in 10.0 mi West 3.5 mph - N/A   Clear
8:53 PM 71.1 °F 53.1 °F 53% 30.10 in 10.0 mi WNW 9.2 mph - 0.00 in   Partly Cloudy
9:53 PM 68.0 °F 55.0 °F 63% 30.13 in 10.0 mi WNW 8.1 mph - N/A   Clear
10:53 PM 68.0 °F 53.1 °F 59% 30.13 in 10.0 mi WNW 6.9 mph - N/A   Clear
11:53 PM 66.9 °F 52.0 °F 59% 30.13 in 10.0 mi WNW 6.9 mph - N/A   Clear